EW7133 Weather Reports


time (UTC)temp
F
wind
direction
speed
knots
gust
knots
rain 1hr
in
rain 24hr
in
rain mn
in
humidity
%
barometer
mb
20260510130034 53 360 0.0 0.0 0.00 0.19 0.00 100 1012.8
20260510124532 52 360 0.0 0.0 0.00 0.19 0.00 100 1012.8
20260510123012 52 229 0.0 0.0 0.00 0.19 0.00 100 1012.5
20260510121510 51 253 0.0 0.0 0.00 0.19 0.19 100 1012.2
20260510120052 51 360 0.0 0.0 0.00 0.19 0.19 100 1012.0
20260510114551 51 360 0.0 0.0 0.00 0.19 0.19 100 1011.9
20260510113031 51 246 0.0 0.0 0.00 0.19 0.19 100 1011.7
20260510111533 50 246 0.0 0.0 0.00 0.19 0.19 100 1011.5
20260510110014 50 126 0.0 0.0 0.00 0.19 0.19 100 1011.3
20260510104514 50 126 0.0 0.0 0.00 0.19 0.19 100 1011.3
20260510103002 50 87 0.0 0.0 0.00 0.19 0.19 100 1011.2
20260510101600 50 87 0.0 0.0 0.00 0.19 0.19 100 1010.9
20260510100105 50 87 0.0 0.0 0.00 0.19 0.19 100 1010.7
20260510094559 50 104 0.0 0.0 0.00 0.19 0.19 100 1010.8
20260510093101 50 84 0.0 0.0 0.00 0.19 0.19 100 1010.8
20260510091558 50 89 0.0 0.0 0.00 0.19 0.19 100 1010.8
20260510090059 50 98 0.0 0.0 0.00 0.19 0.19 100 1010.8
20260510084557 50 123 0.0 0.0 0.00 0.19 0.19 100 1010.9
20260510083039 50 97 0.0 0.0 0.00 0.19 0.19 100 1011.2
20260510081542 50 123 0.0 0.0 0.00 0.19 0.19 100 1011.3
20260510080021 50 236 0.0 0.0 0.00 0.19 0.19 100 1011.4
20260510074521 50 236 0.0 0.0 0.00 0.19 0.19 100 1011.4
20260510073002 50 254 0.0 0.0 0.00 0.19 0.19 100 1011.2
20260510071501 49 200 0.0 0.0 0.00 0.19 0.19 100 1010.7
20260510070046 49 200 0.0 0.0 0.00 0.19 0.19 100 1010.6
20260510064544 49 200 0.0 0.0 0.00 0.19 0.19 99 1010.8
20260510063027 49 200 0.0 0.0 0.00 0.19 0.19 99 1010.8
20260510061531 49 200 0.0 0.0 0.01 0.19 0.19 99 1011.0
20260510060014 50 200 0.0 0.0 0.01 0.19 0.19 99 1011.0
20260510054507 50 149 0.0 0.0 0.01 0.19 0.19 99 1010.8
20260510053052 50 146 0.0 0.0 0.01 0.19 0.19 99 1010.6
20260510051622 50 146 0.0 0.0 0.00 0.18 0.18 99 1010.5
20260510050030 51 145 0.0 0.0 0.00 0.18 0.18 100 1010.6
20260510044533 51 80 0.0 0.0 0.00 0.18 0.18 99 1010.6
20260510043012 51 86 0.0 0.0 0.00 0.18 0.18 99 1010.8
20260510041516 51 88 0.0 0.0 0.00 0.18 0.18 99 1010.7
20260510040054 50 72 0.0 0.0 0.00 0.18 0.18 99 1010.8
20260510034555 50 94 0.0 0.0 0.00 0.18 0.18 99 1010.6
20260510033039 50 86 0.0 0.0 0.00 0.18 0.18 99 1010.4
20260510031604 50 80 0.0 0.0 0.00 0.18 0.18 99 1010.5
20260510030024 49 79 0.0 0.0 0.00 0.18 0.18 98 1010.4
20260510024522 50 69 0.0 0.0 0.00 0.18 0.18 98 1010.3
20260510023036 51 67 0.0 0.0 0.00 0.18 0.18 98 1010.1
20260510021520 51 68 0.0 0.0 0.00 0.18 0.18 98 1010.4
20260510020018 51 74 0.0 0.0 0.00 0.18 0.18 98 1010.2
20260510014517 51 71 0.0 0.0 0.00 0.18 0.18 98 1010.2
20260510013015 52 77 0.0 0.0 0.00 0.18 0.18 97 1010.2
20260510011521 52 82 0.0 0.0 0.00 0.18 0.18 97 1010.1
20260510010107 52 81 0.0 0.0 0.00 0.18 0.18 96 1010.1
20260510004558 53 86 0.0 0.0 0.00 0.18 0.18 95 1009.8
20260510003039 54 96 0.0 0.0 0.00 0.18 0.18 94 1009.6
20260510001539 54 58 0.0 0.0 0.00 0.18 0.18 93 1009.4
20260510000020 55 129 0.0 0.0 0.00 0.18 0.18 92 1009.3
20260509234520 56 182 0.0 0.0 0.00 0.18 0.18 90 1009.3
20260509233003 57 189 0.0 0.0 0.00 0.18 0.18 89 1009.2
20260509231502 57 164 0.0 0.0 0.00 0.18 0.18 88 1009.1
20260509230045 57 251 0.0 0.0 0.00 0.18 0.18 87 1009.0
20260509224543 58 199 0.0 0.0 0.00 0.18 0.18 88 1009.1
20260509223027 58 223 0.0 0.0 0.00 0.18 0.18 90 1009.2
20260509221526 58 218 0.0 0.0 0.00 0.18 0.18 91 1009.2
20260509220002 57 194 0.0 0.0 0.00 0.18 0.18 93 1009.2
20260509214502 56 360 0.0 0.0 0.00 0.18 0.18 94 1009.3
20260509213058 56 253 0.0 0.0 0.00 0.18 0.18 95 1009.3
20260509211608 56 207 0.0 0.0 0.00 0.18 0.18 95 1009.6
20260509210025 56 253 0.0 0.0 0.00 0.18 0.18 96 1009.6
20260509204524 56 253 0.0 0.0 0.00 0.18 0.18 96 1009.6
20260509203010 55 269 0.0 0.0 0.01 0.18 0.18 97 1009.6
20260509201504 54 269 0.0 0.0 0.02 0.18 0.18 97 1009.7
20260509200047 54 269 0.0 0.0 0.03 0.18 0.18 97 1009.7
20260509194546 54 225 0.0 0.0 0.05 0.18 0.18 97 1010.0
20260509193024 54 259 0.0 0.0 0.05 0.17 0.17 97 1010.7
20260509191523 54 257 0.0 0.0 0.05 0.16 0.16 97 1010.9
20260509190006 55 264 0.0 0.0 0.04 0.15 0.15 97 1010.9
20260509184504 55 248 0.0 0.0 0.06 0.13 0.13 96 1010.9
20260509183047 55 265 0.0 0.0 0.08 0.12 0.12 97 1010.9
20260509181603 55 254 0.0 0.0 0.08 0.11 0.11 96 1011.0
20260509180029 55 229 0.0 0.0 0.09 0.11 0.11 95 1011.0
20260509174530 55 263 0.0 0.0 0.06 0.07 0.07 94 1010.7
20260509173013 55 217 0.0 0.0 0.03 0.04 0.04 93 1011.2
20260509171513 56 221 0.0 0.0 0.02 0.03 0.03 92 1011.2
20260509170012 56 252 0.0 0.0 0.00 0.01 0.01 91 1011.1
20260509164511 56 225 0.0 0.0 0.00 0.01 0.01 89 1011.0
20260509163011 56 226 0.0 0.0 0.00 0.01 0.01 89 1011.1
20260509161512 56 259 0.0 0.0 0.00 0.01 0.01 88 1011.2
20260509160010 56 213 0.0 0.0 0.01 0.01 0.01 89 1011.1
20260509154510 56 194 0.0 0.0 0.01 0.01 0.01 90 1011.2
20260509153109 56 115 0.0 0.0 0.01 0.01 0.01 90 1011.1
20260509151552 56 197 0.0 0.0 0.01 0.01 0.01 89 1011.2
20260509150051 56 195 0.0 0.0 0.00 0.00 0.00 88 1011.4
20260509144532 56 173 0.0 0.0 0.00 0.00 0.00 88 1011.4
20260509143031 56 157 0.0 0.0 0.00 0.00 0.00 87 1011.4
20260509141514 56 142 0.0 0.0 0.00 0.01 0.00 85 1011.2
20260509140010 56 172 0.0 0.0 0.00 0.01 0.00 85 1011.1
20260509134554 55 55 0.0 0.0 0.00 0.01 0.00 83 1010.9
20260509133100 54 127 0.0 0.0 0.00 0.01 0.00 84 1011.0
20260509131535 54 84 0.0 0.0 0.00 0.01 0.00 85 1011.3